Location: D�derode
(51.8092°N, 10.1065°E)
Time: 04:51:43
(UTC+00:00)

Cosmos 1869 Rocket - Pass Details

Date: 18 April 2021
Orbit: 604 x 634 km, 82.5° (Epoch: 11 May)

Event Time Altitude Azimuth Distance (km) Brightness Sun altitude
Rises 23:38:06 0° 352° (N) 2,905 8.2 -26.9°
Reaches altitude 10° 23:40:24 10° 358° (N) 1,989 7.1 -26.8°
Enters shadow 23:44:18 50° 54° (NE) 788 4.2 -26.8°
